Location: S�tio Afonso Gruber
(26.1760°S, 49.5250°W)
Time: 14:20:54
(UTC+00:00)

PSLV R/B - Pass Details

Date: 07 June 2020
Orbit: 569 x 598 km, 98.2° (Epoch: 07 July)

Event Time Altitude Azimuth Distance (km) Brightness Sun altitude
Rises 08:57:53 0° 172° (S) 2,805 7.3 -13.9°
Reaches altitude 10° 09:00:03 10° 174° (S) 1,897 6.4 -13.4°
Maximum altitude 09:04:08 68° 256° (WSW) 620 3.8 -12.6°
Drops below altitude 10° 09:08:09 10° 339° (NNW) 1,866 6.5 -11.7°
Sets 09:10:16 0° 342° (NNW) 2,756 7.4 -11.3°
